OK1FPA-13 Weather Reports


Display with metric or nautical units.
time (UTC)temp
F
wind
direction
speed
MPH
gust
MPH
rain 1hr
in
rain 24hr
in
rain mn
in
humidity
%
barometer
mb
20260507024444 53 0.0 0.0 0.00 0.00 0.00 10 1007.3
20260507023444 53 0.0 0.0 0.00 0.00 0.00 10 1007.2
20260507022444 53 0.0 0.0 0.00 0.00 0.00 10 1007.2
20260507021444 53 0.0 0.0 0.00 0.00 0.00 10 1007.2
20260507020444 54 0.0 0.0 0.00 0.00 0.00 10 1007.1
20260507015444 54 0.0 0.0 0.00 0.00 0.00 10 1007.1
20260507014444 54 0.0 0.0 0.00 0.00 0.00 10 1007.0
20260507013444 54 0.0 0.0 0.00 0.00 0.00 10 1006.8
20260507012446 55 0.0 0.0 0.00 0.00 0.00 10 1006.5
20260507011442 55 0.0 0.0 0.00 0.00 0.00 10 1006.5
20260507010442 55 0.0 0.0 0.00 0.00 0.00 10 1006.4
20260507004442 55 0.0 0.0 0.00 0.00 0.00 10 1006.1
20260507003442 55 0.0 0.0 0.00 0.00 0.00 10 1006.0
20260507002442 55 0.0 0.0 0.00 0.00 0.00 10 1005.7
20260507001442 55 0.0 0.0 0.00 0.00 0.00 10 1005.7
20260507000442 55 0.0 0.0 0.00 0.00 0.00 10 1005.7
20260506235442 56 0.0 0.0 0.00 0.00 0.00 10 1005.7
20260506234443 56 0.0 0.0 0.00 0.00 0.00 10 1005.8
20260506233442 56 0.0 0.0 0.00 0.00 0.00 10 1005.5
20260506232442 56 0.0 0.0 0.00 0.00 0.00 10 1004.9
20260506231443 56 0.0 0.0 0.00 0.00 0.00 10 1005.2
20260506230442 56 0.0 0.0 0.00 0.00 0.00 10 1005.5
20260506225442 56 0.0 0.0 0.00 0.00 0.00 10 1005.6
20260506224443 56 0.0 0.0 0.00 0.00 0.00 10 1005.9
20260506223442 56 0.0 0.0 0.00 0.00 0.00 10 1005.9
20260506222442 56 0.0 0.0 0.00 0.00 0.00 10 1006.0
20260506221442 56 0.0 0.0 0.00 0.00 0.00 10 1006.0
20260506220442 56 0.0 0.0 0.00 0.00 0.00 10 1006.0
20260506215442 56 0.0 0.0 0.00 0.00 0.00 10 1005.1
20260506214442 56 0.0 0.0 0.00 0.00 0.00 10 1004.5
20260506213442 55 0.0 0.0 0.00 0.00 0.00 10 1004.5
20260506212442 55 0.0 0.0 0.00 0.00 0.00 10 1004.6
20260506211442 55 0.0 0.0 0.00 0.00 0.00 10 1004.6
20260506210442 54 0.0 0.0 0.00 0.00 0.00 10 1004.5
20260506205442 55 0.0 0.0 0.00 0.00 0.00 10 1004.3
20260506204442 55 0.0 0.0 0.00 0.00 0.00 10 1004.1
20260506203442 55 0.0 0.0 0.00 0.00 0.00 10 1004.2
20260506202442 56 0.0 0.0 0.00 0.00 0.00 99 1003.9
20260506201442 56 0.0 0.0 0.00 0.00 0.00 10 1003.8
20260506200442 56 0.0 0.0 0.00 0.00 0.00 10 1003.9
20260506195444 56 0.0 0.0 0.00 0.00 0.00 10 1003.8
20260506194442 56 0.0 0.0 0.00 0.00 0.00 10 1003.8
20260506193443 56 0.0 0.0 0.00 0.00 0.00 10 1003.9
20260506192443 56 0.0 0.0 0.00 0.00 0.00 10 1003.8
20260506191442 56 0.0 0.0 0.00 0.00 0.00 98 1003.6
20260506190442 56 0.0 0.0 0.00 0.00 0.00 98 1003.7
20260506185442 56 0.0 0.0 0.00 0.00 0.00 99 1003.7
20260506184443 57 0.0 0.0 0.00 0.00 0.00 98 1003.7
20260506183442 57 0.0 0.0 0.00 0.00 0.00 10 1003.7
20260506182444 57 0.0 0.0 0.00 0.00 0.00 96 1003.7
20260506181442 57 0.0 0.0 0.00 0.00 0.00 93 1003.8
20260506180443 57 0.0 0.0 0.00 0.00 0.00 93 1003.8
20260506175443 57 0.0 0.0 0.00 0.00 0.00 96 1003.8
20260506174443 59 0.0 0.0 0.00 0.00 0.00 91 1003.9
20260506173442 60 0.0 0.0 0.00 0.00 0.00 10 1003.9
20260506172443 61 0.0 0.0 0.00 0.00 0.00 10 1004.2
20260506171443 61 0.0 0.0 0.00 0.00 0.00 97 1002.8
20260506170442 61 0.0 0.0 0.00 0.00 0.00 98 1002.8
20260506165442 61 0.0 0.0 0.00 0.00 0.00 94 1002.8
20260506164443 61 0.0 0.0 0.00 0.00 0.00 96 1002.9
20260506163443 62 0.0 0.0 0.00 0.00 0.00 10 1003.1
20260506162442 62 0.0 0.0 0.00 0.00 0.00 99 1003.3
20260506161442 63 0.0 0.0 0.00 0.00 0.00 92 1003.3
20260506160443 64 0.0 0.0 0.00 0.00 0.00 83 1003.7
20260506155442 64 0.0 0.0 0.00 0.00 0.00 88 1003.6
20260506154442 65 0.0 0.0 0.00 0.00 0.00 87 1003.9
20260506153442 65 0.0 0.0 0.00 0.00 0.00 78 1003.9
20260506152442 65 0.0 0.0 0.00 0.00 0.00 78 1003.9
20260506151442 65 0.0 0.0 0.00 0.00 0.00 78 1003.7
20260506150442 64 0.0 0.0 0.00 0.00 0.00 75 1003.6
20260506145443 65 0.0 0.0 0.00 0.00 0.00 82 1003.8
20260506144443 65 0.0 0.0 0.00 0.00 0.00 82 1004.1
20260506143442 67 0.0 0.0 0.00 0.00 0.00 73 1004.2
20260506142442 67 0.0 0.0 0.00 0.00 0.00 68 1004.0
20260506141442 69 0.0 0.0 0.00 0.00 0.00 64 1004.0
20260506140443 68 0.0 0.0 0.00 0.00 0.00 70 1004.1
20260506135442 68 0.0 0.0 0.00 0.00 0.00 59 1004.1
20260506134442 68 0.0 0.0 0.00 0.00 0.00 61 1004.6
20260506133442 72 0.0 0.0 0.00 0.00 0.00 52 1004.8
20260506132445 72 0.0 0.0 0.00 0.00 0.00 40 1004.2
20260506131441 72 0.0 0.0 0.00 0.00 0.00 39 1004.2
20260506130441 72 0.0 0.0 0.00 0.00 0.00 39 1004.5
20260506125441 73 0.0 0.0 0.00 0.00 0.00 39 1004.6
20260506124441 75 0.0 0.0 0.00 0.00 0.00 37 1004.7
20260506123441 74 0.0 0.0 0.00 0.00 0.00 36 1004.8
20260506122441 74 0.0 0.0 0.00 0.00 0.00 36 1004.9
20260506121441 76 0.0 0.0 0.00 0.00 0.00 37 1005.0
20260506120441 79 0.0 0.0 0.00 0.00 0.00 32 1005.0
20260506115441 80 0.0 0.0 0.00 0.00 0.00 32 1005.0
20260506114441 78 0.0 0.0 0.00 0.00 0.00 34 1005.2
20260506113441 76 0.0 0.0 0.00 0.00 0.00 35 1005.3
20260506112441 78 0.0 0.0 0.00 0.00 0.00 35 1005.4
20260506111441 78 0.0 0.0 0.00 0.00 0.00 36 1005.5
20260506110441 77 0.0 0.0 0.00 0.00 0.00 35 1005.6
20260506105441 76 0.0 0.0 0.00 0.00 0.00 36 1005.7
20260506104441 75 0.0 0.0 0.00 0.00 0.00 35 1005.7
20260506103441 74 0.0 0.0 0.00 0.00 0.00 38 1005.9
20260506102441 75 0.0 0.0 0.00 0.00 0.00 36 1006.0
20260506101441 75 0.0 0.0 0.00 0.00 0.00 38 1006.1
20260506100441 74 0.0 0.0 0.00 0.00 0.00 38 1006.2
20260506095441 73 0.0 0.0 0.00 0.00 0.00 41 1006.2
20260506094441 73 0.0 0.0 0.00 0.00 0.00 40 1006.3
20260506093441 73 0.0 0.0 0.00 0.00 0.00 40 1006.1
20260506092441 72 0.0 0.0 0.00 0.00 0.00 43 1006.0
20260506091441 72 0.0 0.0 0.00 0.00 0.00 42 1006.0
20260506090441 71 0.0 0.0 0.00 0.00 0.00 43 1006.1
20260506085441 71 0.0 0.0 0.00 0.00 0.00 44 1006.1
20260506084441 71 0.0 0.0 0.00 0.00 0.00 44 1006.0
20260506083441 70 0.0 0.0 0.00 0.00 0.00 46 1005.9
20260506082441 69 0.0 0.0 0.00 0.00 0.00 48 1006.0
20260506081441 69 0.0 0.0 0.00 0.00 0.00 49 1006.0
20260506080441 69 0.0 0.0 0.00 0.00 0.00 52 1006.1
20260506073441 67 0.0 0.0 0.00 0.00 0.00 56 1006.2
20260506072441 66 0.0 0.0 0.00 0.00 0.00 60 1006.2
20260506071442 65 0.0 0.0 0.00 0.00 0.00 61 1006.2
20260506070441 65 0.0 0.0 0.00 0.00 0.00 62 1006.3
20260506062441 64 0.0 0.0 0.00 0.00 0.00 68 1006.0
20260506061441 62 0.0 0.0 0.00 0.00 0.00 71 1006.2
20260506060441 62 0.0 0.0 0.00 0.00 0.00 69 1006.1
20260506050441 57 0.0 0.0 0.00 0.00 0.00 10 1005.8
20260506044441 56 0.0 0.0 0.00 0.00 0.00 10 1005.9
20260506043441 56 0.0 0.0 0.00 0.00 0.00 10 1005.7
20260506042441 56 0.0 0.0 0.00 0.00 0.00 10 1005.7
20260506041441 55 0.0 0.0 0.00 0.00 0.00 10 1005.4
20260506040441 55 0.0 0.0 0.00 0.00 0.00 10 1005.4
20260506035441 55 0.0 0.0 0.00 0.00 0.00 10 1005.2
20260506034441 55 0.0 0.0 0.00 0.00 0.00 10 1005.1
20260506032441 56 0.0 0.0 0.00 0.00 0.00 10 1005.2
20260506031441 56 0.0 0.0 0.00 0.00 0.00 10 1005.3
20260506030441 56 0.0 0.0 0.00 0.00 0.00 10 1005.2
20260506025441 56 0.0 0.0 0.00 0.00 0.00 10 1005.2